Regional Weather Roundup
Issued by NWS

Home | Current Version | Previous Version | Graphics & Text | Print | Product List | Glossary On
Versions: 1 2 3 4 5 6 7 8 9 10 11 12 13 14 15 16 17 18 19 20 21 22 23 24 25 26 27 28 29 30 31 32 33 34 35 36 37 38 39 40 41 42 43 44 45 46 47 48 49 50
000
ASUS43 KOAX 032210
RWRNE

WEATHER ROUNDUP FOR NEBRASKA
NATIONAL WEATHER SERVICE OMAHA NE
400 PM CST TUE MAR 03 2015

NOTES: SATELLITE DATA IS BEING USED TO AUGMENT CLOUD COVER ABOVE
       12000 FEET.
       "FAIR" INDICATES FEW OR NO CLOUDS BELOW 12,000 FEET WITH NO
       SIGNIFICANT WEATHER AND/OR OBSTRUCTIONS TO VISIBILITY.

  * THESE STATIONS DO NOT REPORT WEATHER SUCH AS RAIN...SNOW OR FOG.

NEZ001>004-019>022-054>056-032300-
NEBRASKA PANHANDLE

CITY           SKY/WX    TMP DP  RH WIND       PRES   REMARKS
SCOTTSBLUFF    CLOUDY    22   9  57 W9        29.92S WCI  12
ALLIANCE       CLOUDY    20   9  62 NW9       29.90F WCI   9
CHADRON        LGT SNOW  17  11  77 E5        29.96F VSB 1   WCI  10
KIMBALL        LGT SNOW  18  12  76 N7        29.83F WCI   9
SIDNEY         CLOUDY    23   9  55 N10       29.88F WCI  12
$$

NEZ057>060-069>072-079>082-032300-
SOUTHWEST NEBRASKA

CITY           SKY/WX    TMP DP  RH WIND       PRES   REMARKS
NORTH PLATTE   SUNNY     29   5  36 N20G25    29.93F WCI  16
IMPERIAL         N/A     30   9  41 N13       29.92R WCI  20
LEXINGTON      SUNNY     32  10  40 N20G25    29.94R WCI  20
MCCOOK         MOSUNNY   35  11  36 N12G23    29.92S WCI  27
OGALLALA       MOSUNNY   27   9  46 N13G20    29.93S WCI  16
$$

NEZ005>010-023>029-035>040-094-032300-
NORTH CENTRAL NEBRASKA

CITY           SKY/WX    TMP DP  RH WIND       PRES   REMARKS
VALENTINE      CLOUDY    20   6  55 NW15G25   30.00R WCI   6
AINSWORTH      MOSUNNY   21   5  50 NW18G26   29.99R WCI   6
BROKEN BOW     SUNNY     29   2  31 N22G31    29.94F WCI  15
O`NEILL        MOSUNNY   24   6  47 NW17G28   30.00R WCI  10
ORD            SUNNY     29   3  33 N21       29.96S WCI  16
THEDFORD       MOSUNNY   24   7  46 N18G25    29.97S WCI  11
$$

NEZ041-046>049-061>064-073>077-083>087-032300-
SOUTH CENTRAL NEBRASKA

CITY           SKY/WX    TMP DP  RH WIND       PRES   REMARKS
GRAND ISLAND   MOSUNNY   31   8  38 N24       29.95S WCI  17
AURORA         MOSUNNY   32   8  36 N24G31    29.94R WCI  19
HASTINGS       MOSUNNY   32  10  40 N24G31    29.92S WCI  19
HEBRON         PTSUNNY   34  14  43 N16G23    29.93R WCI  24
HOLDREGE       MOSUNNY   32   9  38 N21G29    29.92R WCI  20
KEARNEY *      SUNNY     30   9  40 N22       29.93R WCI  17
YORK           MOSUNNY   32  12  43 N18G33    29.93R WCI  20
$$

NEZ011>018-030>034-042>045-032300-
NORTHEAST NEBRASKA

CITY           SKY/WX    TMP DP  RH WIND       PRES   REMARKS
NORFOLK        SUNNY     28   6  39 NW21G30   29.94R WCI  15
ALBION         SUNNY     28   1  30 N21G28    29.96R WCI  14
BLAIR          PTSUNNY   32  16  51 N22G29    29.90R WCI  19
COLUMBUS *     SUNNY     30   3  31 N22G33    29.96F WCI  17
FREMONT        SUNNY     32  13  44 NW22G31   29.94R WCI  20
TEKAMAH        SUNNY     32  15  49 NW25      29.95R WCI  19
WAYNE          SUNNY     26   4  40 N26G36    29.97R WCI  10
$$

NEZ050>053-065>068-078-088>093-032300-
SOUTHEAST NEBRASKA

CITY           SKY/WX    TMP DP  RH WIND       PRES   REMARKS
LINCOLN        PTSUNNY   35  16  45 N25       29.93R WCI  23
OMAHA EPPLEY   PTSUNNY   32  18  56 N21G32    29.91R WCI  20
BEATRICE       PTSUNNY   34  18  51 N21       29.92R WCI  23
FALLS CITY     CLOUDY    37  23  56 NW15G28   29.90R WCI  28
NEBRASKA CITY  CLOUDY    33  16  49 N21G30    29.90R WCI  21
PLATTSMOUTH    PTSUNNY   32  18  55 NW17G24   29.90R WCI  21
$$

NEZ044-045-051>053-067-032300-
OMAHA AREA

CITY           SKY/WX    TMP DP  RH WIND       PRES   REMARKS
OMAHA EPPLEY   PTSUNNY   32  18  56 N21G32    29.91R WCI  20
BLAIR          PTSUNNY   32  16  51 N22G29    29.90R WCI  19
FREMONT        SUNNY     32  13  44 NW22G31   29.94R WCI  20
MILLARD        PTSUNNY   33  17  52 NW18G28   29.92R WCI  22
OFFUTT AFB     PTSUNNY   33  19  56 N17G24    29.91R WCI  22
PLATTSMOUTH    PTSUNNY   32  18  55 NW17G24   29.90R WCI  21
WAHOO          FAIR      32  12  42 N28G36    29.91F WCI  18
$$


USA.gov is the U.S. government's official web portal to all federal, state and local government web resources and services.